THOR ABLESTAR R/B, 669

Orbit data source: Space-Track

THOR ABLESTAR R/B, 669 is space debris in LEO originally from a launch on Sat, 28 Sep 1963 UTC launched from the Air Force Western Test Range (AFWTR). Debris objects in space refer to the collection of defunct objects orbiting the Earth. Examples of debris include non-operational satellites, rocket bodies, and fragments generated from explosions, collisions, or faulty payload assembly.

Loading next visibility...
Identifier
669, 1963-038A
Orbit
LEO
Country
Flag of USUS
Related business
Manufacturer
Aerojet
Mission
Spacecraft
Bus & Motor
ABLESTAR, Unknown motor
Mass
~600 kg wet, 600 kg dry
Launch date (UTC)
1963-09-28 (62 years ago)
Launch vehicle
Unknown
Launch site
Air Force Western Test Range (AFWTR)
Object type
Payload
Rocket body
Debris
Shape & HBR
Cyl, 2.4 m
Radar Cross Section
6.048 m², Large (>1 m²)

Expand to show TLE details & history
Last TLE update: 11 hours ago

TLE from 11 hours ago
0 THOR ABLESTAR R/B
1 00669U 63038A   25246.17569538  .00000046  00000-0  62083-4 0  9997
2 00669  89.9906 334.7750 0025116 217.1460 178.2638 13.46110683 41091
Epoch: 2025-09-03T04:13Z
TLE epoch observation values (Epoch: 2025-09-03T04:13:00.08Z)
Latitude
35.48499°
Longitude
-71.02501°
Altitude
1,110.154 km
Speed
7.291 km/s
True Right ascension
22h 19m 07s
True Declination
35° 19' 49"
Sunlit
Object was in full shadow at epoch
Visualization orbit readout
Latitude
Unknown
Longitude
Unknown
Altitude
Unknown
Speed
Unknown
Apparent Right ascension
Unknown
Apparent Declination
Unknown
Sunlit
N/A
Visualization observer readout
Local Sidereal Time
07:07:43
Azimuth
Unknown
Elevation
Unknown
Doppler factor
Unknown
Orbital elements
Apogee altitude
1,102.399 km
Perigee altitude
1,064.917 km
Semi-major axis
7,461.795 km
Eccentricity
0.00251
Inclination
89.9906°
RAAN
334.775°
Arg. of periapsis
217.146°
True anomaly
178.27249°
Mean anomaly
178.2638°
Eccentric anomaly
178.26815°
Mean motion
3.36727 °/min
Orbital period
106.91 mins
BSTAR
0.000062083
Loading maneuver chart data...
Computing Atmospheric mass density...

Documentation

Showing up to 5 results
|